Location: Nairn
(57.5833°N, 3.8667°W)
Time: 04:23:26
(UTC+00:00)

Altair - Pass Details

Date: 03 December 2020
Orbit: 1501 x 1682 km, 47.2° (Epoch: 17 January)

Event Time Altitude Azimuth Distance (km) Brightness Sun altitude
Rises 18:33:51 0° 196° (SSW) 4,749 10.4 -22.4°
Reaches altitude 10° 18:37:57 10° 182° (S) 3,737 9.6 -22.9°
Maximum altitude 18:44:17 21° 138° (SE) 2,946 8.6 -23.8°
Enters shadow 18:44:48 21° 134° (SE) 2,949 8.6 -23.8°
